Location: Arbon
(43.0005°N, 0.7472°E)
Time: 02:53:32
(UTC+00:00)

SR - Pass Details

Date: 02 December 2020
Orbit: 575 x 880 km, 66.7° (Epoch: 23 January)

Event Time Altitude Azimuth Distance (km) Brightness Sun altitude
Rises 18:44:54 0° 251° (WSW) 2,830 ? -25.3°
Reaches altitude 10° 18:47:35 10° 269° (W) 1,967 ? -25.7°
Maximum altitude 18:50:52 20° 317° (NW) 1,475 ? -26.3°
Enters shadow 18:52:48 16° 349° (NNW) 1,704 ? -26.7°
